[[{"header":{"parameterUnit":"m.s-1","parameterCategory":2,"la1":30.2991,"la2":30.254,"lo1":-89.0895,"lo2":-89.0444,"dy":0.0017,"dx":0.0017,"nx":28,"ny":28,"refTime":"2024-11-27T03:00:00:Z","depth":"0","parameterNumber":2,"parameterNumberName":"U-component_of_CURRENTS"},"data":[0,0,0,0,0,0,0,0,0,0,0,0,0,0,0,0,0,0,0,0,0,0,0,0,0,0,0,0,0,0,0,0,0,0,0,0,0,0,0,0,0,0,0,0,0,0,0,0,0,0,0,0,0,0,0,0,0,0,0.1344,0.1344,0,0.1338,0.1338,0.1338,0.1316,0.1316,0.1316,0.1316,0.1289,0.1289,0.1288,0,0,0,0,0,0,0,0,0,0,0,0,0,0.1333,0.1334,0.1344,0.1344,0.1344,0.1338,0.1338,0.1338,0.1317,0.1316,0.1316,0.1316,0.1289,0.1289,0.1288,0,0,0,0,0,0,0,0,0,0,0,0,0,0.1332,0.1334,0.1344,0.1335,0.1334,0.1338,0.1338,0.1338,0.1317,0.1316,0.1316,0.1315,0.1289,0.1289,0.1288,0.1293,0,0,0.1286,0.1286,0,0,0,0,0,0,0,0,0.1332,0.1332,0.1336,0.1335,0.1335,0.133,0.1325,0.1322,0.1317,0.1321,0.1316,0.1315,0.1302,0.1301,0.1298,0.1291,0.129,0.1286,0.1286,0.1285,0.1285,0,0,0,0,0,0,0,0.1332,0.1332,0.134,0.1336,0.1335,0.133,0.1329,0.1324,0.1312,0.132,0.1319,0.1322,0.1302,0.1298,0.1297,0.129,0.1286,0.1285,0.1285,0.1285,0.1321,0.1322,0,0,0,0,0,0,0.1338,0.1332,0.134,0.134,0.1335,0.133,0.1329,0.133,0.1313,0.131,0.1323,0.1322,0.13,0.1298,0.1296,0.1323,0.1285,0.1285,0.1284,0.1319,0.1321,0.1322,0,0,0,0,0,0,0.1338,0.1339,0.134,0.1338,0.1338,0.1331,0.1332,0.133,0.1328,0.1315,0.1312,0.1323,0.1299,0.1297,0.1308,0.1321,0.1284,0.1284,0.1318,0.132,0.1322,0.1362,0,0,0,0,0,0,0.1337,0.1338,0.134,0.1338,0.1338,0.134,0.1333,0.133,0.1331,0.133,0.1314,0.1311,0.1299,0.1309,0.1307,0.1319,0.1283,0.1316,0.1319,0.1321,0.1359,0.1366,0.1371,0,0,0,0,0,0.1337,0.1336,0.134,0.1341,0.1341,0.134,0.1339,0.1332,0.1332,0.1329,0.1334,0.1312,0.1323,0.131,0.1307,0.1319,0.1315,0.1318,0.1321,0.1357,0.1364,0.1371,0,0,0,0,0,0,0.1334,0.1334,0.1338,0.1338,0.1341,0.1337,0.1334,0.1336,0.1337,0.1337,0.1327,0.1325,0.1342,0.1329,0.1314,0.134,0.1316,0.1319,0.1344,0.1351,0.1357,0.1354,0.1283,0,0,0,0,0,0.1336,0.1331,0.1338,0.1338,0.1339,0.134,0.134,0.1338,0.1341,0.134,0.1335,0.1337,0.1353,0.135,0.1354,0.1363,0.1389,0.1372,0.1378,0.1383,0.138,0.1447,0.1459,0.1332,0.1332,0.1332,0,0,0.1334,0.1335,0.1332,0.1337,0.1336,0.1332,0.1337,0.1337,0.1339,0.1338,0.1338,0.1356,0.1363,0.138,0.1385,0.1368,0.1438,0.1386,0.139,0.1385,0.1452,0.1464,0.1475,0.1334,0.1334,0.1334,0,0,0.132,0.133,0.1318,0.132,0.1324,0.1328,0.1331,0.1333,0.1339,0.135,0.1363,0.1395,0.1391,0.1412,0.1421,0.1461,0.1471,0.1461,0.1479,0.1544,0.1555,0.1565,0.1636,0.1652,0.1457,0.1457,0.1458,0,0.1318,0.1307,0.1316,0.1306,0.1311,0.1326,0.1321,0.1329,0.1337,0.1364,0.135,0.141,0.1408,0.1462,0.1474,0.1473,0.1516,0.145,0.1552,0.1562,0.1572,0.1642,0.1659,0.146,0.146,0.1459,0.1459,0,0.1291,0.1286,0.1281,0.1275,0.1284,0.1282,0.1301,0.1316,0.1333,0.1358,0.1417,0.1436,0.1476,0.1485,0.1484,0.1558,0.1571,0.1558,0.1533,0.1587,0.1658,0.1675,0.1463,0.1462,0.1462,0.1461,0,0,0.1276,0.1263,0.1261,0.126,0.1271,0.1277,0.1295,0.1332,0.1371,0.1392,0.1451,0.1486,0.1522,0.1536,0.1558,0.1605,0.171,0.1606,0.1608,0.1675,0.1873,0.197,0.1997,0.1721,0.1724,0.1726,0.1904,0,0.1252,0.1229,0.1235,0.1227,0.1224,0.1257,0.128,0.1324,0.1371,0.1433,0.149,0.1547,0.1535,0.1572,0.162,0.1698,0.1753,0.1664,0.1812,0.1816,0.1895,0.202,0.2099,0.2272,0.192,0.1923,0.1925,0,0.1224,0.1215,0.12,0.1221,0.1226,0.1231,0.1302,0.1329,0.1428,0.1473,0.1551,0.1598,0.1692,0.1659,0.1816,0.1765,0.1816,0.1863,0.1871,0.1955,0.1945,0.2158,0.2316,0.2184,0.1951,0.1949,0.1947,0,0.1211,0.1198,0.1189,0.119,0.1213,0.1232,0.1261,0.1349,0.1409,0.1514,0.1584,0.1683,0.1764,0.1837,0.194,0.1886,0.2119,0.2054,0.2189,0.2196,0.2289,0.2301,0.2335,0.2153,0.2152,0.2152,0.2151,0,0.119,0.1185,0.1181,0.1176,0.12,0.1226,0.1289,0.134,0.1446,0.1553,0.1612,0.1728,0.1813,0.1952,0.1998,0.2191,0.2176,0.2232,0.2265,0.2309,0.232,0.2226,0.2143,0.2158,0.2157,0.2156,0.2155,0,0.1185,0.117,0.1169,0.1182,0.1191,0.1218,0.13,0.1368,0.1458,0.1601,0.1642,0.1805,0.2011,0.2113,0.2275,0.2306,0.2393,0.2492,0.2547,0.2584,0.2563,0.2481,0.2445,0.2378,0.2671,0.2675,0.2678,0,0.1182,0.1174,0.1178,0.1191,0.1197,0.124,0.1292,0.1371,0.146,0.1669,0.1755,0.1976,0.2165,0.2462,0.2595,0.2755,0.2564,0.2865,0.2762,0.2617,0.2548,0.2321,0.2247,0.2906,0.2911,0.2915,0.2918,0,0.1199,0.1197,0.1203,0.1221,0.1254,0.1296,0.1373,0.1434,0.1569,0.1699,0.1918,0.2079,0.2424,0.2658,0.2879,0.298,0.2743,0.2949,0.2792,0.275,0.2515,0.2449,0.2713,0.2953,0.2949,0.2947,0.2945,0.2943,0.1235,0.1244,0.1254,0.1275,0.1301,0.1353,0.1392,0.1499,0.1634,0.1825,0.1997,0.2243,0.2595,0.2956,0.3043,0.3185,0.2993,0.3104,0.3026,0.2812,0.2716,0.3066,0.3337,0.3336,0.3335,0.3334,0.3333,0,0.1292,0.1298,0.1316,0.1333,0.1352,0.1364,0.1452,0.15,0.1639,0.1854,0.2042,0.2447,0.2751,0.3003,0.3266,0.3213,0.3055,0.3131,0.2808,0.2737,0.3089,0.3067,0.3302,0.3302,0.3302,0.3302,0.3302,0.3302,0.1329,0.1356,0.1354,0.1379,0.1381,0.1403,0.1437,0.1516,0.1644,0.1897,0.2119,0.2329,0.2665,0.2994,0.3096,0.3097,0.2774,0.2766,0.2569,0.2803,0.279,0.2777,0.2734,0.2895,0.2894,0.2168,0.2162,0.2158]},{"header":{"parameterUnit":"m.s-1","parameterCategory":2,"la1":30.2991,"la2":30.254,"lo1":-89.0895,"lo2":-89.0444,"dy":0.0017,"dx":0.0017,"nx":28,"ny":28,"refTime":"2024-11-27T03:00:00:Z","depth":"0","parameterNumber":3,"parameterNumberName":"V-component_of_CURRENTS"},"data":[0,0,0,0,0,0,0,0,0,0,0,0,0,0,0,0,0,0,0,0,0,0,0,0,0,0,0,0,0,0,0,0,0,0,0,0,0,0,0,0,0,0,0,0,0,0,0,0,0,0,0,0,0,0,0,0,0,0,0.0501,0.05,0,0.043,0.0429,0.0429,0.0389,0.0389,0.0389,0.0389,0.0262,0.0259,0.0256,0,0,0,0,0,0,0,0,0,0,0,0,0,0.0566,0.0566,0.0501,0.05,0.0499,0.043,0.0429,0.0428,0.0389,0.0389,0.0389,0.0389,0.0263,0.026,0.0256,0,0,0,0,0,0,0,0,0,0,0,0,0,0.0521,0.0565,0.0501,0.0471,0.0468,0.0431,0.0429,0.0428,0.0389,0.0389,0.0389,0.0389,0.0265,0.026,0.0255,0.0228,0,0,0.024,0.0238,0,0,0,0,0,0,0,0,0.0524,0.0519,0.0477,0.0473,0.047,0.0418,0.0406,0.0359,0.0389,0.0419,0.0389,0.0389,0.0309,0.0301,0.0289,0.0222,0.0217,0.024,0.0237,0.0235,0.0233,0,0,0,0,0,0,0,0.0527,0.0521,0.0473,0.0476,0.0471,0.0449,0.0443,0.0397,0.0365,0.0417,0.0414,0.0406,0.0307,0.0294,0.0285,0.0215,0.024,0.0235,0.0232,0.0231,0.0093,0.0092,0,0,0,0,0,0,0.0538,0.0525,0.0475,0.0471,0.0497,0.0449,0.0441,0.0435,0.0367,0.0357,0.0406,0.0404,0.0302,0.0291,0.0281,0.0248,0.0235,0.023,0.0227,0.0094,0.0093,0.0092,0,0,0,0,0,0,0.054,0.0534,0.0478,0.0496,0.0487,0.0448,0.0441,0.0434,0.0421,0.0359,0.0348,0.0401,0.0301,0.0287,0.024,0.0243,0.0228,0.0223,0.0095,0.0093,0.0092,0.018,0,0,0,0,0,0,0.0542,0.0535,0.0537,0.0497,0.0487,0.0462,0.0441,0.0432,0.0417,0.0414,0.0351,0.0339,0.03,0.0247,0.0235,0.0236,0.022,0.0095,0.0094,0.0093,0.0178,0.0182,0.0186,0,0,0,0,0,0.0544,0.0545,0.0537,0.0531,0.0489,0.0462,0.0455,0.0426,0.0417,0.0414,0.0369,0.0341,0.0229,0.0243,0.0228,0.0228,0.0096,0.0094,0.0093,0.0176,0.0181,0.0186,0,0,0,0,0,0,0.0575,0.054,0.053,0.0521,0.0497,0.0455,0.0448,0.0431,0.0394,0.0389,0.0334,0.0319,0.0278,0.0234,0.0251,0.018,0.0157,0.0152,0.0225,0.0229,0.0233,0.0269,0.0215,0,0,0,0,0,0.0583,0.0574,0.054,0.0534,0.0524,0.0489,0.0475,0.0456,0.0418,0.0403,0.0359,0.0306,0.0259,0.0232,0.0183,0.0146,0.0115,0.0132,0.0136,0.014,0.0156,0.0102,0.0104,0.0087,0.0087,0.0087,0,0,0.0593,0.0573,0.0568,0.054,0.0518,0.0506,0.048,0.0462,0.0453,0.0393,0.0365,0.0319,0.0251,0.0212,0.0189,0.0178,0.0128,0.0138,0.0142,0.0157,0.0101,0.0103,0.0105,0.0086,0.0086,0.0086,0,0,0.0602,0.0592,0.0585,0.057,0.0542,0.0522,0.052,0.0482,0.0468,0.0435,0.039,0.0352,0.0275,0.0237,0.0205,0.0197,0.0151,0.0171,0.022,0.0168,0.017,0.0171,0.0145,0.0143,0.0172,0.0172,0.0173,0,0.0613,0.0602,0.058,0.057,0.0564,0.0533,0.0529,0.0509,0.0462,0.0462,0.0435,0.0348,0.0291,0.0254,0.0249,0.021,0.0177,0.0215,0.0176,0.0177,0.0176,0.0149,0.0146,0.0176,0.0176,0.0176,0.0175,0,0.0613,0.0609,0.0606,0.0587,0.058,0.0572,0.0548,0.054,0.0521,0.0508,0.0477,0.0403,0.0359,0.0326,0.0284,0.0254,0.0232,0.0192,0.0176,0.0184,0.0154,0.0149,0.0182,0.0181,0.018,0.0179,0,0,0.0616,0.0607,0.0605,0.061,0.0591,0.0586,0.0584,0.0579,0.0603,0.055,0.0567,0.0478,0.046,0.0422,0.0362,0.0315,0.0283,0.0259,0.0254,0.0255,0.0184,0.0177,0.0171,0.0232,0.0232,0.0231,0.0169,0,0.0619,0.0616,0.0612,0.0621,0.062,0.0614,0.0626,0.0626,0.0627,0.0639,0.0577,0.0562,0.0489,0.0475,0.0417,0.0324,0.0272,0.0305,0.0158,0.0154,0.0164,0.0165,0.0246,0.0197,0.0164,0.0163,0.0163,0,0.0613,0.0614,0.0622,0.0652,0.0655,0.0665,0.0704,0.0715,0.0733,0.0741,0.0726,0.0682,0.0623,0.0548,0.0405,0.0429,0.0315,0.0233,0.0228,0.019,0.0138,0.0178,0.0189,0.0047,0.0155,0.0156,0.0156,0,0.0617,0.0626,0.0638,0.0642,0.0665,0.0686,0.0711,0.0748,0.0793,0.0813,0.0852,0.0774,0.0747,0.0598,0.044,0.0414,0.0284,0.0222,0.0108,0.0107,0.0133,0.0135,0.001,0.0103,0.0103,0.0103,0.0104,0,0.0617,0.0629,0.0645,0.065,0.0695,0.0714,0.0789,0.0813,0.0882,0.0969,0.0909,0.0949,0.0754,0.066,0.0486,0.0309,0.0315,0.0129,0.0089,0.0165,0.017,0.0012,-0.0092,0.0101,0.0102,0.0102,0.0102,0,0.0617,0.0622,0.0641,0.0674,0.0694,0.0731,0.084,0.0917,0.0971,0.108,0.109,0.1073,0.0974,0.0779,0.0558,0.0385,0.0126,0.0124,0.0244,0.0219,-0.0032,-0.0133,-0.0291,-0.0366,-0.0011,-0.0011,-0.0012,0,0.0617,0.0621,0.0658,0.0691,0.0709,0.0781,0.0858,0.0944,0.1048,0.117,0.1233,0.1179,0.1186,0.0887,0.0587,0.0304,0.0129,0.0148,0.0097,-0.0024,-0.0167,-0.0219,-0.0276,0.017,0.0171,0.0171,0.0172,0,0.0619,0.0628,0.0649,0.0717,0.0789,0.0894,0.1013,0.1107,0.1243,0.1343,0.1471,0.1485,0.1251,0.1038,0.0653,0.0435,0.0077,0.0154,-0.0007,-0.0061,-0.0091,-0.0187,0.0198,0.018,0.0179,0.0178,0.0178,0.0178,0.0625,0.0646,0.0686,0.0759,0.0855,0.1018,0.1125,0.1277,0.1451,0.1636,0.1645,0.1719,0.1434,0.0948,0.0647,0.0156,0.009,-0.0008,-0.0125,-0.0169,-0.0232,0.018,0.013,0.0129,0.0128,0.0127,0.0127,0,0.0635,0.0675,0.0741,0.0849,0.098,0.1032,0.1243,0.137,0.1579,0.1752,0.1865,0.1815,0.144,0.1004,0.0361,-0.0029,-0.0166,-0.0256,-0.0307,-0.0361,-0.001,0.001,-0.0025,-0.0025,-0.0024,-0.0024,-0.0024,-0.0024,0.0647,0.0701,0.0745,0.0944,0.1044,0.1236,0.1365,0.1541,0.1692,0.1898,0.1983,0.2033,0.171,0.0668,-0.009,-0.0283,-0.0563,-0.061,-0.0805,-0.0557,-0.0542,-0.0528,-0.0532,-0.068,-0.0681,-0.1044,-0.1048,-0.1052]}],[{"header":{"parameterUnit":"m.s-1","parameterCategory":2,"la1":30.2991,"la2":30.254,"lo1":-89.0895,"lo2":-89.0444,"dy":0.0017,"dx":0.0017,"nx":28,"ny":28,"refTime":"2024-11-27T03:00:00:Z","depth":"2","parameterNumber":2,"parameterNumberName":"U-component_of_CURRENTS"},"data":[0,0,0,0,0,0,0,0,0,0,0,0,0,0,0,0,0,0,0,0,0,0,0,0,0,0,0,0,0,0,0,0,0,0,0,0,0,0,0,0,0,0,0,0,0,0,0,0,0,0,0,0,0,0,0,0,0,0,0.1594,0.1594,0,0.1573,0.1573,0.1572,0.1527,0.1526,0.1525,0.1524,0.1516,0.1517,0.1517,0,0,0,0,0,0,0,0,0,0,0,0,0,0.1601,0.1601,0.1594,0.1594,0.1593,0.1573,0.1573,0.1572,0.1527,0.1526,0.1525,0.1524,0.1516,0.1517,0.1518,0,0,0,0,0,0,0,0,0,0,0,0,0,0.159,0.1601,0.1594,0.1569,0.1567,0.1573,0.1573,0.1572,0.1527,0.1526,0.1525,0.1523,0.1516,0.1517,0.1518,0.1548,0,0,0.152,0.1521,0,0,0,0,0,0,0,0,0.1591,0.159,0.1573,0.1571,0.1568,0.1552,0.1572,0.1565,0.1527,0.1541,0.1524,0.1523,0.1531,0.1531,0.1528,0.1547,0.1547,0.152,0.1521,0.1521,0.1521,0,0,0,0,0,0,0,0.1592,0.159,0.1584,0.1573,0.157,0.1562,0.1558,0.1571,0.1543,0.154,0.1537,0.1536,0.153,0.1527,0.1527,0.1547,0.152,0.1521,0.1521,0.1522,0.1592,0.1593,0,0,0,0,0,0,0.1597,0.1591,0.1585,0.1584,0.1578,0.1563,0.1559,0.1558,0.1542,0.1539,0.1538,0.1534,0.1526,0.1526,0.1527,0.156,0.1521,0.1522,0.1522,0.159,0.1592,0.1594,0,0,0,0,0,0,0.1598,0.1597,0.1586,0.1588,0.1586,0.1564,0.1563,0.1558,0.1551,0.1541,0.1537,0.1535,0.1525,0.1526,0.1542,0.1559,0.1522,0.1523,0.1589,0.1591,0.1593,0.1628,0,0,0,0,0,0,0.1598,0.1597,0.16,0.1588,0.1586,0.1593,0.1564,0.1558,0.1553,0.1549,0.1538,0.1535,0.1524,0.1541,0.1543,0.156,0.1524,0.1587,0.159,0.1592,0.1625,0.1631,0.1636,0,0,0,0,0,0.1598,0.1613,0.16,0.1599,0.1589,0.1594,0.1592,0.1571,0.1555,0.1559,0.1553,0.1536,0.1558,0.1543,0.1545,0.1562,0.1586,0.1589,0.1592,0.1623,0.163,0.1636,0,0,0,0,0,0,0.1624,0.161,0.1595,0.1605,0.1599,0.1586,0.1594,0.1577,0.1574,0.1572,0.1554,0.1553,0.1576,0.157,0.1553,0.1592,0.157,0.1573,0.1592,0.1599,0.1604,0.1606,0.1524,0,0,0,0,0,0.163,0.1633,0.1619,0.1629,0.1628,0.161,0.1609,0.1595,0.1592,0.1588,0.1576,0.1577,0.1593,0.1594,0.1604,0.1626,0.1648,0.164,0.1645,0.165,0.1654,0.1713,0.1724,0.1604,0.1604,0.1604,0,0,0.1643,0.1637,0.1638,0.1634,0.1628,0.1627,0.1607,0.1612,0.1609,0.1591,0.159,0.1598,0.1605,0.1628,0.1637,0.1621,0.1699,0.1654,0.1657,0.1659,0.1718,0.1729,0.174,0.1606,0.1605,0.1605,0,0,0.1668,0.1666,0.167,0.1666,0.166,0.1651,0.1653,0.1639,0.1633,0.164,0.1632,0.1653,0.1657,0.167,0.1678,0.1724,0.173,0.1724,0.1747,0.1804,0.1815,0.1824,0.1879,0.1893,0.1721,0.1721,0.1721,0,0.1678,0.1677,0.1675,0.1675,0.1671,0.1661,0.166,0.1662,0.1652,0.166,0.1643,0.168,0.1681,0.1724,0.1734,0.1736,0.1768,0.1718,0.1812,0.1821,0.183,0.1884,0.1899,0.1723,0.1723,0.1723,0.1723,0,0.1696,0.1693,0.1702,0.169,0.1693,0.1697,0.1692,0.1697,0.1689,0.1688,0.1726,0.1737,0.1757,0.1766,0.176,0.1825,0.1828,0.1816,0.1793,0.1845,0.1898,0.1913,0.1726,0.1725,0.1725,0.1724,0,0,0.1696,0.1709,0.1703,0.1699,0.1696,0.1699,0.1714,0.1723,0.1738,0.1745,0.1773,0.1805,0.1814,0.1825,0.1832,0.1875,0.1966,0.1869,0.1871,0.1921,0.2099,0.212,0.2138,0.1971,0.1973,0.1975,0.2115,0,0.1696,0.1703,0.1707,0.1706,0.1705,0.171,0.1723,0.1738,0.1754,0.1783,0.1818,0.185,0.1836,0.1855,0.1899,0.1951,0.2005,0.1929,0.2045,0.2048,0.2058,0.2156,0.182,0.1918,0.2129,0.2132,0.2134,0,0.1681,0.1691,0.1695,0.1707,0.1708,0.171,0.1733,0.1748,0.1799,0.1817,0.1864,0.189,0.1961,0.1938,0.2062,0.2015,0.2062,0.2099,0.2105,0.2121,0.2097,0.19,0.1937,0.2159,0.2157,0.2155,0.2153,0,0.1656,0.1669,0.1675,0.1675,0.1697,0.1704,0.1716,0.1756,0.1782,0.1848,0.1885,0.1959,0.2013,0.2082,0.2161,0.2117,0.2306,0.2253,0.232,0.2322,0.2057,0.2032,0.2352,0.2352,0.2352,0.2351,0.2351,0,0.1633,0.1628,0.1664,0.1662,0.1674,0.1693,0.1717,0.1744,0.1803,0.1858,0.1904,0.1975,0.2054,0.2162,0.2207,0.2333,0.2351,0.2356,0.2373,0.2063,0.2038,0.2251,0.2238,0.2357,0.2355,0.2354,0.2353,0,0.1589,0.1611,0.1618,0.165,0.1659,0.1666,0.1709,0.174,0.1796,0.1876,0.1905,0.2017,0.217,0.2265,0.2404,0.2409,0.2511,0.2548,0.219,0.2164,0.2469,0.2456,0.2627,0.2629,0.2631,0.2633,0.2634,0,0.1564,0.1567,0.1604,0.1619,0.1629,0.1651,0.1675,0.1726,0.1771,0.1909,0.1958,0.2125,0.224,0.2458,0.2445,0.2543,0.2634,0.2351,0.2212,0.2506,0.2505,0.2488,0.2473,0.1866,0.1861,0.1856,0.1853,0,0.1523,0.1542,0.1561,0.1598,0.1619,0.1647,0.1688,0.172,0.1808,0.1895,0.204,0.2143,0.2278,0.2231,0.2355,0.2356,0.2302,0.2277,0.2675,0.1874,0.1807,0.18,0.1805,0.1816,0.182,0.1822,0.1824,0.1826,0.1496,0.151,0.1552,0.158,0.1612,0.1646,0.166,0.1728,0.1808,0.1891,0.2031,0.2068,0.201,0.2025,0.2032,0.2013,0.2165,0.2055,0.2059,0.2069,0.1982,0.1925,0.1939,0.1943,0.1947,0.195,0.1953,0,0.1473,0.151,0.1537,0.1575,0.1595,0.1629,0.1678,0.1681,0.1766,0.1782,0.1884,0.1657,0.1632,0.1654,0.1515,0.156,0.1439,0.1563,0.1338,0.1373,0.1406,0.1278,0.1052,0.1051,0.1049,0.1048,0,0,0.147,0.1494,0.1515,0.1548,0.1582,0.1605,0.1629,0.1634,0.1611,0.1531,0.1453,0.1509,0.1509,0.122,0.1192,0.1121,0.124,0.1071,0.1765,0.1526,0.1557,0.1641,0.1481,0,0,0,0,0]},{"header":{"parameterUnit":"m.s-1","parameterCategory":2,"la1":30.2991,"la2":30.254,"lo1":-89.0895,"lo2":-89.0444,"dy":0.0017,"dx":0.0017,"nx":28,"ny":28,"refTime":"2024-11-27T03:00:00:Z","depth":"2","parameterNumber":3,"parameterNumberName":"V-component_of_CURRENTS"},"data":[0,0,0,0,0,0,0,0,0,0,0,0,0,0,0,0,0,0,0,0,0,0,0,0,0,0,0,0,0,0,0,0,0,0,0,0,0,0,0,0,0,0,0,0,0,0,0,0,0,0,0,0,0,0,0,0,0,0,0.002,0.002,0,0.0021,0.0021,0.0021,0.0066,0.0067,0.0068,0.0069,0.0004,0.0001,-0.0002,0,0,0,0,0,0,0,0,0,0,0,0,0,0.0039,0.0039,0.002,0.002,0.002,0.0021,0.0021,0.0021,0.0066,0.0067,0.0068,0.007,0.0005,0.0001,-0.0002,0,0,0,0,0,0,0,0,0,0,0,0,0,0.0035,0.0039,0.002,0.0043,0.0045,0.0021,0.0021,0.0021,0.0065,0.0067,0.0069,0.007,0.0006,0.0002,-0.0002,-0.0064,0,0,-0.0015,-0.0017,0,0,0,0,0,0,0,0,0.0035,0.0034,0.0039,0.0041,0.0043,0.0045,0.0004,-0.0011,0.0065,0.0058,0.0069,0.0071,0.001,0.0006,0.0003,-0.0067,-0.007,-0.0016,-0.0018,-0.002,-0.0021,0,0,0,0,0,0,0,0.0035,0.0034,0.002,0.0039,0.0041,0.0046,0.0048,0.0001,0.0023,0.0058,0.0062,0.0061,0.0011,0.0007,0.0001,-0.0071,-0.0016,-0.002,-0.0022,-0.0024,-0.0149,-0.015,0,0,0,0,0,0,0.0034,0.0034,0.002,0.002,0.0043,0.0044,0.0046,0.0043,0.0025,0.0024,0.0059,0.0063,0.0013,0.0006,-0.0001,-0.0024,-0.002,-0.0024,-0.0027,-0.0149,-0.015,-0.0151,0,0,0,0,0,0,0.0034,0.0032,0.002,0.0028,0.0027,0.0042,0.0038,0.0042,0.0059,0.0026,0.0025,0.0076,0.0014,0.0005,-0.0029,-0.0028,-0.0026,-0.003,-0.0148,-0.0149,-0.015,-0.0103,0,0,0,0,0,0,0.0035,0.0032,0.0035,0.0027,0.0026,0.0018,0.0036,0.004,0.0054,0.006,0.0038,0.0034,0.0015,-0.0022,-0.0033,-0.0034,-0.0033,-0.0147,-0.0148,-0.015,-0.0104,-0.0102,-0.0101,0,0,0,0,0,0.0035,0.0025,0.0035,0.0034,0.0027,0.0018,0.0018,0.0035,0.0054,0.0058,0.0044,0.0036,-0.0039,-0.0026,-0.0039,-0.0041,-0.0146,-0.0148,-0.015,-0.0104,-0.0103,-0.0101,0,0,0,0,0,0,0.0036,0.0028,0.0039,0.0029,0.0032,0.0026,0.0029,0.0041,0.0034,0.0042,0.0019,0.0012,-0.0014,-0.0044,-0.003,-0.0083,-0.0093,-0.0097,-0.0054,-0.0053,-0.0052,-0.0032,-0.0037,0,0,0,0,0,0.0036,0.0029,0.0026,0.0022,0.0023,0.003,0.0031,0.0043,0.0033,0.0036,0.0021,-0.0006,-0.0038,-0.0055,-0.0087,-0.0127,-0.0152,-0.0136,-0.0135,-0.0134,-0.0128,-0.017,-0.0171,-0.0156,-0.0156,-0.0156,0,0,0.0039,0.003,0.0031,0.0022,0.0026,0.0028,0.0036,0.0041,0.0046,0.0022,0.0022,-0.0003,-0.0048,-0.0078,-0.0093,-0.0099,-0.0153,-0.0136,-0.0134,-0.0129,-0.0172,-0.0173,-0.0174,-0.0158,-0.0157,-0.0157,0,0,0.0033,0.0032,0.0028,0.0029,0.0033,0.0033,0.0039,0.0041,0.0048,0.0034,0.0022,0.0001,-0.0049,-0.0074,-0.0096,-0.0117,-0.0144,-0.0129,-0.011,-0.0151,-0.0152,-0.0153,-0.0187,-0.0191,-0.0131,-0.0131,-0.0131,0,0.0045,0.0034,0.0027,0.0026,0.003,0.0038,0.0044,0.0042,0.0037,0.0032,0.0041,-0.0016,-0.0046,-0.0088,-0.0085,-0.0112,-0.0138,-0.0106,-0.0147,-0.0149,-0.0151,-0.0185,-0.0191,-0.0129,-0.0129,-0.0129,-0.0129,0,0.0037,0.0038,0.0034,0.0037,0.0038,0.0041,0.0042,0.0045,0.0054,0.0052,0.0029,-0.0007,-0.0037,-0.0053,-0.0073,-0.0105,-0.0119,-0.0136,-0.0142,-0.0149,-0.0186,-0.0192,-0.0126,-0.0127,-0.0127,-0.0128,0,0,0.0056,0.0033,0.004,0.0042,0.0047,0.0045,0.0048,0.0045,0.005,0.0044,0.004,-0.0003,-0.0006,-0.0033,-0.0061,-0.0093,-0.0124,-0.0112,-0.0116,-0.0132,-0.021,-0.0178,-0.0183,-0.0145,-0.0146,-0.0147,-0.0229,0,0.0064,0.005,0.0043,0.0051,0.0049,0.0054,0.0053,0.0053,0.0053,0.0049,0.0021,0.0006,-0.0006,-0.0014,-0.0046,-0.0102,-0.014,-0.01,-0.0214,-0.0217,-0.0176,-0.0189,-0.0189,-0.0258,-0.0236,-0.0237,-0.0238,0,0.0074,0.0058,0.0055,0.0049,0.0051,0.0064,0.0068,0.0068,0.0059,0.0059,0.0048,0.0031,-0.0004,-0.0015,-0.0105,-0.0077,-0.0138,-0.0183,-0.0188,-0.0177,-0.0197,-0.0251,-0.0272,-0.0249,-0.0248,-0.0247,-0.0247,0,0.0081,0.0076,0.0069,0.007,0.0061,0.0072,0.0079,0.0079,0.008,0.0076,0.0081,0.0036,0.0025,-0.0052,-0.0118,-0.0119,-0.022,-0.0242,-0.0277,-0.0276,-0.0307,-0.0306,-0.0321,-0.0321,-0.032,-0.032,-0.032,0,0.0085,0.0089,0.0077,0.0073,0.0084,0.0084,0.01,0.0102,0.0105,0.0116,0.0096,0.01,0.0018,-0.0039,-0.0118,-0.02,-0.0223,-0.0271,-0.0293,-0.0291,-0.0288,-0.0304,-0.0301,-0.0323,-0.0323,-0.0322,-0.0321,0,0.0094,0.0084,0.008,0.0076,0.0085,0.0099,0.0123,0.0129,0.0139,0.0155,0.0159,0.0139,0.0096,0.0004,-0.0116,-0.0188,-0.0284,-0.0317,-0.0295,-0.0312,-0.0318,-0.0312,-0.0371,-0.037,-0.037,-0.037,-0.0369,0,0.0091,0.0084,0.0084,0.0098,0.0106,0.0127,0.0143,0.0151,0.0165,0.0188,0.0198,0.0176,0.0203,0.0055,-0.009,-0.0223,-0.0258,-0.0338,-0.0338,-0.0307,-0.0324,-0.0318,-0.0313,-0.0375,-0.0375,-0.0375,-0.0374,0,0.0081,0.0086,0.0074,0.0101,0.0128,0.0149,0.0181,0.02,0.022,0.0278,0.0335,0.037,0.0246,0.0133,-0.0049,-0.0148,-0.0309,-0.0336,-0.0334,-0.034,-0.0311,-0.0327,-0.0322,-0.0373,-0.0373,-0.0373,-0.0373,-0.0373,0.0076,0.0075,0.0071,0.0103,0.014,0.019,0.0238,0.0297,0.0376,0.0508,0.0487,0.0552,0.0316,0.0133,-0.005,-0.0257,-0.0251,-0.0353,-0.0354,-0.0355,-0.0319,-0.0288,-0.034,-0.034,-0.034,-0.034,-0.034,0,0.0052,0.0062,0.0081,0.0119,0.0173,0.0202,0.0276,0.0369,0.0528,0.0611,0.0746,0.0556,0.0426,0.0167,-0.0137,-0.0307,-0.0326,-0.0362,-0.0379,-0.0379,-0.038,-0.0345,-0.0374,-0.0374,-0.0374,-0.0375,0,0,0.0036,0.0034,0.0046,0.0135,0.02,0.0313,0.0386,0.0556,0.064,0.0788,0.0805,0.0837,0.0442,0.0208,-0.0041,-0.0213,-0.0242,-0.0229,-0.0188,-0.0179,-0.0177,-0.0366,-0.0311,0,0,0,0,0]}],[{"header":{"parameterUnit":"m.s-1","parameterCategory":2,"la1":30.2991,"la2":30.254,"lo1":-89.0895,"lo2":-89.0444,"dy":0.0017,"dx":0.0017,"nx":28,"ny":28,"refTime":"2024-11-27T03:00:00:Z","depth":"4","parameterNumber":2,"parameterNumberName":"U-component_of_CURRENTS"},"data":[0,0,0,0,0,0,0,0,0,0,0,0,0,0,0,0,0,0,0,0,0,0,0,0,0,0,0,0,0,0,0,0,0,0,0,0,0,0,0,0,0,0,0,0,0,0,0,0,0,0,0,0,0,0,0,0,0,0,0.0573,0.0573,0,0.0643,0.0644,0.0646,0.0775,0.0777,0.0779,0.078,0.0871,0.0871,0.0872,0,0,0,0,0,0,0,0,0,0,0,0,0,0.0532,0.0533,0.0573,0.0573,0.0573,0.0643,0.0644,0.0646,0.0775,0.0777,0.0779,0.0781,0.087,0.0871,0.0872,0,0,0,0,0,0,0,0,0,0,0,0,0,0.0579,0.0534,0.0573,0.0639,0.0645,0.0642,0.0645,0.0647,0.0774,0.0777,0.078,0.0782,0.087,0.0871,0.0872,0.0828,0,0,0.0876,0.0876,0,0,0,0,0,0,0,0,0.0576,0.0581,0.0629,0.0635,0.0641,0.0696,0.0663,0.0705,0.0774,0.0734,0.078,0.0783,0.0806,0.0813,0.0832,0.0832,0.0836,0.0876,0.0877,0.0877,0.0878,0,0,0,0,0,0,0,0.0573,0.0579,0.0609,0.0629,0.0636,0.0659,0.067,0.0672,0.0762,0.0738,0.0745,0.0739,0.0812,0.0831,0.0835,0.0837,0.0876,0.0877,0.0878,0.0878,0.0953,0.0954,0,0,0,0,0,0,0.0545,0.0576,0.0607,0.061,0.0605,0.0657,0.0669,0.0682,0.0762,0.0774,0.0737,0.0745,0.0827,0.0834,0.0839,0.0914,0.0877,0.0878,0.0879,0.0952,0.0953,0.0955,0,0,0,0,0,0,0.0545,0.0548,0.0604,0.0587,0.0595,0.0654,0.0668,0.0682,0.0771,0.0759,0.0774,0.0817,0.083,0.0837,0.0905,0.0913,0.0879,0.088,0.095,0.0952,0.0954,0.0984,0,0,0,0,0,0,0.0544,0.0548,0.0569,0.0585,0.0594,0.0635,0.0665,0.0681,0.0754,0.0768,0.0831,0.0838,0.0832,0.0904,0.0906,0.0914,0.0881,0.0949,0.0951,0.0953,0.0981,0.0987,0.0991,0,0,0,0,0,0.0542,0.0562,0.057,0.0574,0.0615,0.0635,0.0644,0.0699,0.0756,0.0793,0.0852,0.084,0.092,0.0906,0.0909,0.0917,0.0947,0.095,0.0953,0.0979,0.0986,0.0991,0,0,0,0,0,0,0.0559,0.0576,0.0586,0.0612,0.0631,0.0655,0.0692,0.0735,0.0812,0.0855,0.0865,0.0875,0.093,0.0928,0.0913,0.0947,0.0927,0.0931,0.0946,0.0952,0.0957,0.096,0.0882,0,0,0,0,0,0.0563,0.0586,0.0596,0.0618,0.0635,0.0678,0.0704,0.075,0.08,0.0843,0.0894,0.0932,0.0929,0.0952,0.0964,0.099,0.0985,0.0996,0.1001,0.1005,0.1011,0.1005,0.101,0.0964,0.0964,0.0964,0,0,0.0566,0.0582,0.0593,0.0622,0.0652,0.0687,0.0707,0.0772,0.0819,0.0833,0.0953,0.096,0.0943,0.0971,0.0994,0.0982,0.1021,0.1009,0.1012,0.1016,0.1009,0.1013,0.1017,0.0966,0.0965,0.0965,0,0,0.0579,0.0612,0.0636,0.0661,0.0708,0.0735,0.0768,0.0841,0.0899,0.0977,0.099,0.102,0.1061,0.1038,0.1022,0.1063,0.1047,0.1069,0.1094,0.1089,0.1092,0.1095,0.1112,0.1116,0.107,0.107,0.107,0,0.0591,0.0619,0.0645,0.0679,0.0701,0.0766,0.0804,0.0859,0.0957,0.0989,0.1031,0.1078,0.1078,0.1053,0.107,0.1071,0.1079,0.1068,0.1094,0.1096,0.1098,0.1115,0.1118,0.1071,0.1071,0.1071,0.1071,0,0.0619,0.065,0.0673,0.0733,0.0764,0.0814,0.0867,0.0953,0.1035,0.1069,0.1123,0.1129,0.1146,0.1138,0.1117,0.1117,0.1123,0.1099,0.1074,0.1104,0.112,0.1124,0.1074,0.1073,0.1073,0.1072,0,0,0.061,0.068,0.069,0.0725,0.0804,0.0837,0.0917,0.0977,0.1044,0.1125,0.1176,0.1167,0.1188,0.1172,0.1149,0.1144,0.1168,0.1138,0.1137,0.1148,0.1183,0.1077,0.1071,0.1151,0.1152,0.1152,0.1193,0,0.0626,0.0687,0.0719,0.0791,0.0825,0.0897,0.0952,0.1024,0.1096,0.1177,0.117,0.1212,0.119,0.1206,0.1196,0.1171,0.1177,0.1161,0.1159,0.1159,0.1053,0.107,0.1153,0.1196,0.1197,0.1197,0.1198,0,0.0638,0.0673,0.0743,0.0815,0.0841,0.0912,0.102,0.1077,0.1161,0.1209,0.1242,0.1259,0.1257,0.1248,0.1228,0.1224,0.1217,0.1201,0.1201,0.1091,0.1058,0.1156,0.1203,0.1203,0.1203,0.1202,0.1202,0,0.0607,0.069,0.0753,0.0783,0.088,0.0949,0.1016,0.1105,0.1152,0.1245,0.1288,0.1293,0.1315,0.1295,0.1256,0.1262,0.1235,0.1234,0.1135,0.1129,0.12,0.1196,0.1235,0.1235,0.1235,0.1235,0.1235,0,0.0586,0.0633,0.077,0.0801,0.0883,0.0963,0.1059,0.1124,0.1214,0.1232,0.1311,0.129,0.1332,0.1312,0.1278,0.1199,0.125,0.1143,0.1124,0.1216,0.1213,0.1203,0.1199,0.1236,0.1236,0.1236,0.1235,0,0.0514,0.0605,0.0684,0.0822,0.0872,0.0941,0.107,0.1118,0.1228,0.1257,0.1285,0.132,0.1279,0.1297,0.1262,0.1219,0.1157,0.1119,0.1229,0.1215,0.1068,0.1065,0.1047,0.1044,0.1041,0.1038,0.1036,0,0.0486,0.0527,0.0686,0.0747,0.0824,0.0937,0.0986,0.1103,0.1117,0.1204,0.1169,0.1215,0.1209,0.1101,0.1106,0.1082,0.1056,0.1069,0.1065,0.1061,0.1045,0.1047,0.1049,0.1031,0.103,0.103,0.1029,0,0.0415,0.0503,0.0557,0.0671,0.0767,0.0835,0.0911,0.0903,0.0992,0.1107,0.1049,0.106,0.1023,0.0993,0.1007,0.0958,0.1083,0.1037,0.1044,0.1041,0.1041,0.1029,0.1034,0.1018,0.102,0.1021,0.1021,0,0.0373,0.0393,0.0495,0.0579,0.0684,0.0713,0.0762,0.0776,0.0813,0.0908,0.0844,0.0892,0.0953,0.092,0.0872,0.0881,0.0884,0.0888,0.0903,0.0915,0.0849,0.0829,0.0722,0,0,0,0,0,0.0322,0.0327,0.0396,0.0475,0.0571,0.0642,0.0693,0.0731,0.0782,0.072,0.0807,0.0757,0.0767,0.0755,0.0739,0.08,0.0876,0.0778,0.0884,0.096,0.0972,0.0905,0,0,0,0,0,0,0.0286,0.0331,0.0346,0.038,0.0428,0.0505,0.0544,0.0584,0.0542,0.0618,0.06,0.0726,0.0708,0.0776,0.0729,0.0739,0.0793,0.0825,0.0824,0.0953,0.0964,0.0974,0.0909,0,0,0,0,0]},{"header":{"parameterUnit":"m.s-1","parameterCategory":2,"la1":30.2991,"la2":30.254,"lo1":-89.0895,"lo2":-89.0444,"dy":0.0017,"dx":0.0017,"nx":28,"ny":28,"refTime":"2024-11-27T03:00:00:Z","depth":"4","parameterNumber":3,"parameterNumberName":"V-component_of_CURRENTS"},"data":[0,0,0,0,0,0,0,0,0,0,0,0,0,0,0,0,0,0,0,0,0,0,0,0,0,0,0,0,0,0,0,0,0,0,0,0,0,0,0,0,0,0,0,0,0,0,0,0,0,0,0,0,0,0,0,0,0,0,-0.005,-0.0049,0,-0.0054,-0.0055,-0.0055,-0.0164,-0.0166,-0.0167,-0.0169,-0.031,-0.0312,-0.0314,0,0,0,0,0,0,0,0,0,0,0,0,0,-0.0111,-0.011,-0.005,-0.0049,-0.0048,-0.0054,-0.0055,-0.0056,-0.0163,-0.0166,-0.0168,-0.017,-0.0309,-0.0312,-0.0314,0,0,0,0,0,0,0,0,0,0,0,0,0,-0.0105,-0.011,-0.005,-0.0096,-0.0099,-0.0053,-0.0055,-0.0056,-0.0163,-0.0166,-0.0169,-0.0171,-0.0309,-0.0311,-0.0314,-0.0274,0,0,-0.0323,-0.0324,0,0,0,0,0,0,0,0,-0.0106,-0.0104,-0.009,-0.0092,-0.0096,-0.0103,-0.0127,-0.0132,-0.0162,-0.0148,-0.0169,-0.0173,-0.0245,-0.0253,-0.0259,-0.0281,-0.0287,-0.0323,-0.0325,-0.0326,-0.0327,0,0,0,0,0,0,0,-0.0106,-0.0104,-0.0061,-0.0088,-0.0092,-0.0107,-0.0111,-0.0129,-0.019,-0.015,-0.0155,-0.014,-0.025,-0.0256,-0.0263,-0.0289,-0.0323,-0.0326,-0.0328,-0.0329,-0.044,-0.0441,0,0,0,0,0,0,-0.0084,-0.0104,-0.006,-0.006,-0.0098,-0.0103,-0.0108,-0.0105,-0.0187,-0.0199,-0.0137,-0.0145,-0.025,-0.026,-0.0269,-0.0363,-0.0326,-0.0329,-0.0331,-0.0439,-0.044,-0.0442,0,0,0,0,0,0,-0.0086,-0.0081,-0.006,-0.0074,-0.0072,-0.0098,-0.0095,-0.0104,-0.0152,-0.0174,-0.0192,-0.0181,-0.0252,-0.0265,-0.0336,-0.0364,-0.033,-0.0333,-0.0438,-0.0439,-0.0441,-0.0463,0,0,0,0,0,0,-0.0088,-0.0082,-0.0086,-0.0073,-0.007,-0.0059,-0.0091,-0.0101,-0.013,-0.0142,-0.0215,-0.0229,-0.0255,-0.0331,-0.0339,-0.0367,-0.0335,-0.0436,-0.0438,-0.0441,-0.046,-0.0465,-0.0469,0,0,0,0,0,-0.009,-0.0081,-0.0086,-0.0081,-0.0071,-0.0058,-0.006,-0.0093,-0.013,-0.015,-0.0216,-0.0229,-0.0351,-0.0335,-0.0343,-0.0373,-0.0435,-0.0438,-0.044,-0.0458,-0.0464,-0.0469,0,0,0,0,0,0,-0.0111,-0.0089,-0.0096,-0.0082,-0.0079,-0.0073,-0.0083,-0.0106,-0.0169,-0.0202,-0.0242,-0.026,-0.0335,-0.0346,-0.0327,-0.0412,-0.0395,-0.04,-0.0406,-0.0412,-0.0416,-0.0387,-0.0338,0,0,0,0,0,-0.0109,-0.0101,-0.0085,-0.0074,-0.0075,-0.0086,-0.009,-0.0116,-0.0152,-0.0184,-0.0252,-0.0309,-0.034,-0.0373,-0.0413,-0.0451,-0.0432,-0.0477,-0.0481,-0.0485,-0.0468,-0.046,-0.0461,-0.0451,-0.0451,-0.0451,0,0,-0.0109,-0.0095,-0.0091,-0.0078,-0.0082,-0.0087,-0.0101,-0.0117,-0.0146,-0.0187,-0.0289,-0.0333,-0.0355,-0.0414,-0.0446,-0.0434,-0.0481,-0.0488,-0.0491,-0.0472,-0.0462,-0.0463,-0.0464,-0.0453,-0.0452,-0.0452,0,0,-0.0099,-0.01,-0.0096,-0.0094,-0.0096,-0.0103,-0.0115,-0.0153,-0.0201,-0.0272,-0.0311,-0.037,-0.0449,-0.0463,-0.0471,-0.0515,-0.0506,-0.0543,-0.054,-0.0533,-0.0533,-0.0532,-0.0515,-0.0513,-0.0542,-0.0542,-0.0542,0,-0.0108,-0.0093,-0.0092,-0.0091,-0.0085,-0.0116,-0.012,-0.0157,-0.0231,-0.0261,-0.032,-0.0422,-0.046,-0.0471,-0.0502,-0.0522,-0.0515,-0.0518,-0.0536,-0.0535,-0.0534,-0.0516,-0.0514,-0.0543,-0.0543,-0.0543,-0.0543,0,-0.0095,-0.0092,-0.0089,-0.0099,-0.01,-0.0106,-0.0137,-0.0198,-0.027,-0.0305,-0.0384,-0.0444,-0.0491,-0.0521,-0.053,-0.0542,-0.0538,-0.0543,-0.0516,-0.0536,-0.0517,-0.0513,-0.0545,-0.0545,-0.0544,-0.0544,0,0,-0.0092,-0.0084,-0.0086,-0.0082,-0.0106,-0.01,-0.0154,-0.0185,-0.0214,-0.0328,-0.0359,-0.0441,-0.0483,-0.0492,-0.0519,-0.0524,-0.0529,-0.0538,-0.0537,-0.0508,-0.051,-0.0497,-0.0491,-0.0543,-0.0543,-0.0542,-0.05,0,-0.0088,-0.0072,-0.0077,-0.0076,-0.0068,-0.0106,-0.0135,-0.0177,-0.0242,-0.0299,-0.0354,-0.0405,-0.0463,-0.0491,-0.0509,-0.0521,-0.0521,-0.0539,-0.0505,-0.0503,-0.0478,-0.0487,-0.0541,-0.0498,-0.0497,-0.0497,-0.0496,0,-0.0081,-0.0061,-0.0059,-0.0044,-0.0047,-0.0077,-0.0111,-0.0143,-0.0206,-0.0252,-0.0312,-0.0357,-0.0391,-0.0439,-0.0465,-0.0479,-0.0494,-0.0506,-0.0504,-0.0475,-0.0483,-0.0474,-0.049,-0.049,-0.0491,-0.0491,-0.0492,0,-0.0058,-0.0048,-0.0043,-0.0043,-0.0047,-0.0079,-0.0103,-0.0154,-0.0155,-0.023,-0.0231,-0.0299,-0.0319,-0.0363,-0.0409,-0.044,-0.0417,-0.0456,-0.045,-0.0449,-0.0462,-0.0462,-0.0453,-0.0454,-0.0454,-0.0454,-0.0454,0,-0.0037,-0.0029,-0.0048,-0.0042,-0.0041,-0.0067,-0.0084,-0.012,-0.0142,-0.0111,-0.0211,-0.0195,-0.0303,-0.031,-0.037,-0.0391,-0.0385,-0.0437,-0.0435,-0.0475,-0.0477,-0.0459,-0.0461,-0.0452,-0.0453,-0.0453,-0.0453,0,-0.0012,-0.0025,-0.0007,-0.0021,-0.0034,-0.0044,-0.0048,-0.0033,-0.008,-0.004,-0.005,-0.0103,-0.0142,-0.0214,-0.0266,-0.0318,-0.035,-0.035,-0.0363,-0.0364,-0.0399,-0.0403,-0.0358,-0.0357,-0.0356,-0.0355,-0.0355,0,-0.0,0.0004,0.0012,0.0024,0.0001,-0.0012,0.0005,-0.0016,0.0026,0.0031,0.0082,0.0034,-0.0009,-0.0072,-0.0175,-0.0271,-0.0293,-0.0301,-0.0388,-0.0386,-0.0389,-0.0393,-0.0397,-0.0354,-0.0354,-0.0353,-0.0353,0,0.0037,0.0024,0.0054,0.0082,0.0086,0.0122,0.0136,0.0167,0.0175,0.0179,0.0187,0.0109,0.0075,-0.0051,-0.0114,-0.0188,-0.0303,-0.0295,-0.0299,-0.038,-0.0381,-0.0385,-0.039,-0.0351,-0.0351,-0.0351,-0.0351,0,0.0066,0.0093,0.0124,0.0138,0.0179,0.0211,0.0211,0.0251,0.0275,0.028,0.0291,0.0192,0.0137,-0.0002,-0.0054,-0.0137,-0.0189,-0.0229,-0.0238,-0.0242,-0.0241,-0.0227,-0.0134,0,0,0,0,0,0.0101,0.0132,0.0176,0.0198,0.0248,0.0251,0.0304,0.0309,0.0328,0.0353,0.0311,0.0267,0.0122,0.0052,-0.0031,-0.0059,-0.0202,-0.0157,-0.0252,-0.0336,-0.0339,-0.036,0,0,0,0,0,0,0.013,0.0184,0.0194,0.0244,0.0255,0.031,0.0329,0.034,0.0344,0.0341,0.0262,0.0242,0.01,0.016,-0.004,-0.0064,-0.0135,-0.0219,-0.022,-0.0335,-0.0337,-0.034,-0.0362,0,0,0,0,0]}]]